| time (UTC) | temp C | wind direction | speed KPH | gust KPH | rain 1hr cm | rain 24hr cm | rain mn cm | humidity % | barometer mb |
| 20260503225031 | 18 | 285 | 9.7 | 27.4 | 0.00 | 0.00 | 0.00 | 56 | 1013.7 |
| 20260503224632 | 18 | 316 | 12.9 | 27.4 | 0.00 | 0.00 | 0.00 | 55 | 1013.6 |
| 20260503224030 | 18 | 316 | 9.7 | 27.4 | 0.00 | 0.00 | 0.00 | 55 | 1013.5 |
| 20260503223530 | 18 | 321 | 11.3 | 27.4 | 0.00 | 0.00 | 0.00 | 54 | 1013.6 |
| 20260503223029 | 18 | 318 | 8.0 | 24.1 | 0.00 | 0.00 | 0.00 | 55 | 1013.6 |
| 20260503222529 | 18 | 303 | 12.9 | 25.7 | 0.00 | 0.00 | 0.00 | 55 | 1013.7 |
| 20260503222027 | 19 | 305 | 9.7 | 25.7 | 0.00 | 0.00 | 0.00 | 54 | 1013.6 |
| 20260503221526 | 19 | 273 | 9.7 | 24.1 | 0.00 | 0.00 | 0.00 | 56 | 1013.8 |
| 20260503221026 | 18 | 15 | 3.2 | 27.4 | 0.00 | 0.00 | 0.00 | 55 | 1013.8 |
| 20260503220526 | 18 | 299 | 11.3 | 27.4 | 0.00 | 0.00 | 0.00 | 56 | 1013.9 |
| 20260503220018 | 18 | 290 | 9.7 | 20.9 | 0.00 | 0.00 | 0.00 | 55 | 1013.9 |
| 20260503215518 | 18 | 328 | 4.8 | 20.9 | 0.00 | 0.00 | 0.00 | 57 | 1014.0 |
| 20260503215016 | 18 | 320 | 9.7 | 24.1 | 0.00 | 0.00 | 0.00 | 57 | 1013.9 |
| 20260503214618 | 18 | 289 | 11.3 | 27.4 | 0.00 | 0.00 | 0.00 | 58 | 1014.0 |
| 20260503214021 | 18 | 307 | 12.9 | 27.4 | 0.00 | 0.00 | 0.00 | 57 | 1014.0 |
| 20260503213515 | 18 | 304 | 11.3 | 22.5 | 0.00 | 0.00 | 0.00 | 58 | 1014.0 |
| 20260503213015 | 18 | 298 | 11.3 | 22.5 | 0.00 | 0.00 | 0.00 | 59 | 1014.0 |
| 20260503212515 | 18 | 299 | 9.7 | 20.9 | 0.00 | 0.00 | 0.00 | 59 | 1014.0 |
| 20260503212013 | 18 | 329 | 9.7 | 27.4 | 0.00 | 0.00 | 0.00 | 60 | 1013.8 |
| 20260503211514 | 18 | 338 | 4.8 | 25.7 | 0.00 | 0.00 | 0.00 | 59 | 1013.9 |
| 20260503211013 | 18 | 266 | 9.7 | 25.7 | 0.00 | 0.00 | 0.00 | 58 | 1014.0 |
| 20260503210519 | 18 | 329 | 14.5 | 22.5 | 0.00 | 0.00 | 0.00 | 58 | 1014.0 |
| 20260503210006 | 18 | 321 | 16.1 | 24.1 | 0.00 | 0.00 | 0.00 | 58 | 1013.9 |
| 20260503205506 | 18 | 318 | 12.9 | 24.1 | 0.00 | 0.00 | 0.00 | 57 | 1014.0 |
| 20260503205006 | 18 | 269 | 11.3 | 24.1 | 0.00 | 0.00 | 0.00 | 58 | 1014.1 |
| 20260503204505 | 18 | 283 | 12.9 | 22.5 | 0.00 | 0.00 | 0.00 | 58 | 1014.2 |
| 20260503204005 | 18 | 304 | 11.3 | 24.1 | 0.00 | 0.00 | 0.00 | 60 | 1014.2 |
| 20260503203508 | 18 | 323 | 11.3 | 24.1 | 0.00 | 0.00 | 0.00 | 60 | 1014.3 |
| 20260503203004 | 18 | 305 | 12.9 | 22.5 | 0.00 | 0.00 | 0.00 | 59 | 1014.3 |
| 20260503202505 | 18 | 354 | 9.7 | 25.7 | 0.00 | 0.00 | 0.00 | 60 | 1014.2 |
| 20260503202004 | 18 | 268 | 8.0 | 30.6 | 0.00 | 0.00 | 0.00 | 62 | 1014.2 |
| 20260503201504 | 18 | 314 | 16.1 | 30.6 | 0.00 | 0.00 | 0.00 | 60 | 1014.3 |
| 20260503201007 | 18 | 341 | 14.5 | 27.4 | 0.00 | 0.00 | 0.00 | 60 | 1014.2 |
| 20260503200504 | 18 | 331 | 6.4 | 20.9 | 0.00 | 0.00 | 0.00 | 61 | 1014.3 |
| 20260503200100 | 18 | 292 | 11.3 | 22.5 | 0.00 | 0.00 | 0.00 | 61 | 1014.2 |
| 20260503195555 | 18 | 307 | 9.7 | 27.4 | 0.00 | 0.00 | 0.00 | 61 | 1014.3 |
| 20260503195057 | 18 | 316 | 8.0 | 27.4 | 0.00 | 0.00 | 0.00 | 61 | 1014.3 |
| 20260503194555 | 18 | 312 | 9.7 | 29.0 | 0.00 | 0.00 | 0.00 | 60 | 1014.4 |
| 20260503194055 | 18 | 300 | 11.3 | 25.7 | 0.00 | 0.00 | 0.00 | 59 | 1014.3 |
| 20260503193555 | 18 | 323 | 11.3 | 19.3 | 0.00 | 0.00 | 0.00 | 60 | 1014.4 |
| 20260503193059 | 18 | 325 | 9.7 | 19.3 | 0.00 | 0.00 | 0.00 | 60 | 1014.4 |
| 20260503192553 | 18 | 304 | 9.7 | 19.3 | 0.00 | 0.00 | 0.00 | 61 | 1014.4 |
| 20260503192052 | 18 | 312 | 11.3 | 19.3 | 0.00 | 0.00 | 0.00 | 61 | 1014.4 |
| 20260503191601 | 17 | 320 | 6.4 | 16.1 | 0.00 | 0.00 | 0.00 | 61 | 1014.4 |
| 20260503191050 | 17 | 310 | 8.0 | 16.1 | 0.00 | 0.00 | 0.00 | 60 | 1014.5 |
| 20260503190549 | 17 | 267 | 4.8 | 14.5 | 0.00 | 0.00 | 0.00 | 60 | 1014.4 |
| 20260503190038 | 17 | 300 | 8.0 | 17.7 | 0.00 | 0.00 | 0.00 | 61 | 1014.4 |
| 20260503185535 | 17 | 275 | 4.8 | 17.7 | 0.00 | 0.00 | 0.00 | 62 | 1014.5 |
| 20260503185035 | 16 | 310 | 3.2 | 17.7 | 0.00 | 0.00 | 0.00 | 62 | 1014.5 |
| 20260503184538 | 16 | 304 | 6.4 | 17.7 | 0.00 | 0.00 | 0.00 | 63 | 1014.5 |
| 20260503184032 | 16 | 308 | 6.4 | 16.1 | 0.00 | 0.00 | 0.00 | 63 | 1014.5 |
| 20260503183532 | 16 | 343 | 3.2 | 16.1 | 0.00 | 0.00 | 0.00 | 63 | 1014.6 |
| 20260503183029 | 16 | 289 | 6.4 | 16.1 | 0.00 | 0.00 | 0.00 | 64 | 1014.6 |
| 20260503182527 | 15 | 289 | 3.2 | 14.5 | 0.00 | 0.00 | 0.00 | 64 | 1014.7 |
| 20260503182026 | 15 | 302 | 6.4 | 17.7 | 0.00 | 0.00 | 0.00 | 65 | 1014.7 |
| 20260503181525 | 15 | 358 | 0.0 | 17.7 | 0.00 | 0.00 | 0.00 | 65 | 1014.7 |
| 20260503181026 | 15 | 319 | 0.0 | 16.1 | 0.00 | 0.00 | 0.00 | 66 | 1014.8 |
| 20260503180523 | 15 | 274 | 4.8 | 12.9 | 0.00 | 0.00 | 0.00 | 67 | 1014.7 |
| 20260503180022 | 15 | 310 | 0.0 | 17.7 | 0.00 | 0.00 | 0.00 | 67 | 1014.7 |
| 20260503175514 | 15 | 296 | 8.0 | 17.7 | 0.00 | 0.00 | 0.00 | 68 | 1014.7 |
| 20260503175013 | 15 | 313 | 1.6 | 14.5 | 0.00 | 0.00 | 0.00 | 68 | 1014.7 |
| 20260503174512 | 15 | 319 | 3.2 | 16.1 | 0.00 | 0.00 | 0.00 | 69 | 1014.7 |
| 20260503174012 | 14 | 302 | 8.0 | 16.1 | 0.00 | 0.00 | 0.00 | 70 | 1014.8 |
| 20260503173509 | 14 | 294 | 6.4 | 14.5 | 0.00 | 0.00 | 0.00 | 71 | 1014.8 |
| 20260503173009 | 14 | 318 | 1.6 | 11.3 | 0.00 | 0.00 | 0.00 | 72 | 1014.8 |
| 20260503172508 | 14 | 321 | 1.6 | 20.9 | 0.00 | 0.00 | 0.00 | 73 | 1014.8 |
| 20260503172006 | 14 | 310 | 1.6 | 20.9 | 0.00 | 0.00 | 0.00 | 73 | 1014.7 |
| 20260503171506 | 14 | 314 | 3.2 | 12.9 | 0.00 | 0.00 | 0.00 | 74 | 1014.7 |
| 20260503171004 | 14 | 340 | 1.6 | 11.3 | 0.00 | 0.00 | 0.00 | 74 | 1014.7 |
| 20260503170504 | 14 | 4 | 1.6 | 9.7 | 0.00 | 0.00 | 0.00 | 74 | 1014.6 |
| 20260503150530 | 12 | 7 | 1.6 | 6.4 | 0.00 | 0.00 | 0.00 | 82 | 1013.9 |
| 20260503131052 | 11 | 85 | 0.0 | 1.6 | 0.00 | 0.00 | 0.00 | 82 | 1012.9 |
| 20260503130552 | 11 | 78 | 0.0 | 1.6 | 0.00 | 0.00 | 0.00 | 82 | 1012.8 |
| 20260503120103 | 12 | 25 | 0.0 | 0.0 | 0.00 | 0.00 | 0.00 | 82 | 1012.3 |
| 20260503110546 | 12 | 26 | 0.0 | 0.0 | 0.00 | 0.00 | 0.00 | 82 | 1012.7 |
| 20260503081532 | 12 | 25 | 0.0 | 6.4 | 0.00 | 0.00 | 0.00 | 80 | 1013.1 |
| 20260503081032 | 12 | 29 | 1.6 | 6.4 | 0.00 | 0.00 | 0.00 | 80 | 1013.3 |
| 20260503080535 | 12 | 1 | 0.0 | 4.8 | 0.00 | 0.00 | 0.00 | 80 | 1013.3 |
| 20260503072529 | 12 | 25 | 0.0 | 3.2 | 0.00 | 0.00 | 0.00 | 81 | 1013.2 |
| 20260503072131 | 12 | 25 | 0.0 | 3.2 | 0.00 | 0.00 | 0.00 | 81 | 1013.3 |
| 20260503071528 | 12 | 25 | 0.0 | 3.2 | 0.00 | 0.00 | 0.00 | 81 | 1013.1 |
| 20260503071027 | 12 | 25 | 0.0 | 3.2 | 0.00 | 0.00 | 0.00 | 81 | 1013.1 |
| 20260503070526 | 12 | 25 | 0.0 | 1.6 | 0.00 | 0.00 | 0.00 | 81 | 1013.0 |
| 20260503055023 | 12 | 25 | 0.0 | 11.3 | 0.00 | 0.00 | 0.00 | 82 | 1012.7 |
| 20260503054529 | 12 | 52 | 0.0 | 6.4 | 0.00 | 0.00 | 0.00 | 82 | 1012.7 |
| 20260503054026 | 12 | 52 | 0.0 | 6.4 | 0.00 | 0.00 | 0.00 | 82 | 1012.7 |
| 20260503053523 | 12 | 36 | 0.0 | 3.2 | 0.00 | 0.00 | 0.00 | 82 | 1012.7 |
| 20260503053032 | 12 | 36 | 0.0 | 1.6 | 0.00 | 0.00 | 0.00 | 82 | 1012.7 |
| 20260503052526 | 12 | 36 | 0.0 | 0.0 | 0.00 | 0.00 | 0.00 | 82 | 1012.8 |
| 20260503052022 | 12 | 36 | 0.0 | 3.2 | 0.00 | 0.00 | 0.00 | 82 | 1012.7 |
| 20260503051522 | 11 | 36 | 0.0 | 4.8 | 0.00 | 0.00 | 0.00 | 82 | 1012.6 |
| 20260503051025 | 11 | 36 | 0.0 | 4.8 | 0.00 | 0.00 | 0.00 | 82 | 1012.5 |
| 20260503050522 | 11 | 36 | 0.0 | 0.0 | 0.00 | 0.00 | 0.00 | 82 | 1012.5 |
| 20260503050017 | 11 | 36 | 0.0 | 4.8 | 0.00 | 0.00 | 0.00 | 81 | 1012.4 |
| 20260503045515 | 11 | 36 | 0.0 | 4.8 | 0.00 | 0.00 | 0.00 | 81 | 1012.3 |
| 20260503045015 | 11 | 33 | 0.0 | 1.6 | 0.00 | 0.00 | 0.00 | 81 | 1012.3 |
| 20260503044514 | 12 | 33 | 0.0 | 1.6 | 0.00 | 0.00 | 0.00 | 81 | 1012.2 |
| 20260503044014 | 12 | 33 | 0.0 | 6.4 | 0.00 | 0.00 | 0.00 | 80 | 1012.2 |
| 20260503043514 | 12 | 32 | 0.0 | 6.4 | 0.00 | 0.00 | 0.00 | 80 | 1012.2 |
| 20260503043014 | 12 | 25 | 0.0 | 4.8 | 0.00 | 0.00 | 0.00 | 80 | 1012.2 |
| 20260503042514 | 12 | 85 | 0.0 | 3.2 | 0.00 | 0.00 | 0.00 | 80 | 1012.2 |
| 20260503042014 | 12 | 85 | 0.0 | 3.2 | 0.00 | 0.00 | 0.00 | 79 | 1012.3 |
| 20260503041515 | 12 | 85 | 0.0 | 1.6 | 0.00 | 0.00 | 0.00 | 79 | 1012.3 |
| 20260503041017 | 12 | 85 | 0.0 | 1.6 | 0.00 | 0.00 | 0.00 | 79 | 1012.3 |
| 20260503040513 | 12 | 85 | 0.0 | 1.6 | 0.00 | 0.00 | 0.00 | 79 | 1012.4 |
| 20260503040007 | 12 | 85 | 0.0 | 3.2 | 0.00 | 0.00 | 0.00 | 79 | 1012.3 |
| 20260503035508 | 12 | 85 | 0.0 | 3.2 | 0.00 | 0.00 | 0.00 | 79 | 1012.3 |
| 20260503035007 | 12 | 85 | 0.0 | 3.2 | 0.00 | 0.00 | 0.00 | 79 | 1012.2 |
| 20260503034520 | 12 | 85 | 0.0 | 3.2 | 0.00 | 0.00 | 0.00 | 78 | 1012.1 |
| 20260503034010 | 12 | 85 | 0.0 | 1.6 | 0.00 | 0.00 | 0.00 | 78 | 1012.2 |
| 20260503033506 | 12 | 85 | 0.0 | 3.2 | 0.00 | 0.00 | 0.00 | 78 | 1012.1 |
| 20260503033007 | 13 | 85 | 0.0 | 3.2 | 0.00 | 0.00 | 0.00 | 78 | 1012.1 |
| 20260503032505 | 13 | 360 | 0.0 | 0.0 | 0.00 | 0.00 | 0.00 | 78 | 1012.1 |
| 20260503032005 | 13 | 360 | 0.0 | 0.0 | 0.00 | 0.00 | 0.00 | 78 | 1012.1 |
| 20260503031505 | 13 | 360 | 0.0 | 0.0 | 0.00 | 0.00 | 0.00 | 78 | 1012.2 |
| 20260503031005 | 13 | 360 | 0.0 | 1.6 | 0.00 | 0.00 | 0.00 | 78 | 1012.1 |
| 20260503030505 | 13 | 360 | 0.0 | 1.6 | 0.00 | 0.00 | 0.00 | 78 | 1011.9 |
| 20260503030053 | 13 | 22 | 0.0 | 3.2 | 0.00 | 0.00 | 0.00 | 78 | 1011.8 |
| 20260503025548 | 13 | 22 | 0.0 | 6.4 | 0.00 | 0.00 | 0.00 | 78 | 1011.7 |
| 20260503025048 | 13 | 306 | 0.0 | 6.4 | 0.00 | 0.00 | 0.00 | 77 | 1011.8 |
| 20260503024551 | 13 | 298 | 1.6 | 6.4 | 0.00 | 0.00 | 0.00 | 77 | 1011.7 |
| 20260503024050 | 13 | 327 | 1.6 | 9.7 | 0.00 | 0.00 | 0.00 | 76 | 1011.5 |
| 20260503023546 | 13 | 38 | 4.8 | 9.7 | 0.00 | 0.00 | 0.00 | 76 | 1011.4 |
| 20260503023046 | 13 | 301 | 3.2 | 16.1 | 0.00 | 0.00 | 0.00 | 76 | 1011.4 |
| 20260503022545 | 13 | 319 | 8.0 | 16.1 | 0.00 | 0.00 | 0.00 | 75 | 1011.4 |
| 20260503022044 | 14 | 331 | 6.4 | 14.5 | 0.00 | 0.00 | 0.00 | 74 | 1011.5 |
| 20260503021546 | 14 | 316 | 3.2 | 14.5 | 0.00 | 0.00 | 0.00 | 74 | 1011.5 |
| 20260503021044 | 14 | 301 | 4.8 | 20.9 | 0.00 | 0.00 | 0.00 | 73 | 1011.5 |
| 20260503020544 | 14 | 279 | 8.0 | 20.9 | 0.00 | 0.00 | 0.00 | 73 | 1011.5 |
| 20260503020041 | 14 | 314 | 6.4 | 16.1 | 0.00 | 0.00 | 0.00 | 72 | 1011.5 |
| 20260503015540 | 15 | 286 | 8.0 | 17.7 | 0.00 | 0.00 | 0.00 | 72 | 1011.5 |
| 20260503015037 | 15 | 321 | 6.4 | 16.1 | 0.00 | 0.00 | 0.00 | 72 | 1011.5 |
| 20260503014542 | 15 | 302 | 8.0 | 16.1 | 0.00 | 0.00 | 0.00 | 71 | 1011.6 |
| 20260503014040 | 15 | 303 | 8.0 | 16.1 | 0.00 | 0.00 | 0.00 | 71 | 1011.6 |
| 20260503013537 | 15 | 287 | 6.4 | 16.1 | 0.00 | 0.00 | 0.00 | 71 | 1011.5 |
| 20260503013038 | 15 | 308 | 6.4 | 17.7 | 0.00 | 0.00 | 0.00 | 70 | 1011.5 |
| 20260503012536 | 15 | 299 | 8.0 | 17.7 | 0.00 | 0.00 | 0.00 | 70 | 1011.5 |
| 20260503012038 | 15 | 278 | 4.8 | 17.7 | 0.00 | 0.00 | 0.00 | 70 | 1011.6 |
| 20260503011536 | 16 | 275 | 6.4 | 14.5 | 0.00 | 0.00 | 0.00 | 70 | 1011.6 |
| 20260503011036 | 16 | 303 | 3.2 | 14.5 | 0.00 | 0.00 | 0.00 | 70 | 1011.7 |
| 20260503010537 | 16 | 291 | 3.2 | 16.1 | 0.00 | 0.00 | 0.00 | 69 | 1011.7 |
| 20260503010025 | 16 | 312 | 8.0 | 16.1 | 0.00 | 0.00 | 0.00 | 69 | 1011.7 |
| 20260503005525 | 16 | 318 | 8.0 | 20.9 | 0.00 | 0.00 | 0.00 | 68 | 1011.8 |
| 20260503005024 | 16 | 306 | 6.4 | 20.9 | 0.00 | 0.00 | 0.00 | 68 | 1011.8 |
| 20260503004524 | 16 | 302 | 8.0 | 19.3 | 0.00 | 0.00 | 0.00 | 68 | 1011.9 |
| 20260503004027 | 16 | 324 | 8.0 | 19.3 | 0.00 | 0.00 | 0.00 | 68 | 1011.8 |
| 20260503003523 | 17 | 307 | 3.2 | 16.1 | 0.00 | 0.00 | 0.00 | 68 | 1011.9 |
| 20260503003023 | 17 | 285 | 6.4 | 16.1 | 0.00 | 0.00 | 0.00 | 68 | 1011.8 |
| 20260503002522 | 17 | 290 | 4.8 | 14.5 | 0.00 | 0.00 | 0.00 | 68 | 1011.8 |
| 20260503002022 | 17 | 284 | 4.8 | 16.1 | 0.00 | 0.00 | 0.00 | 68 | 1011.8 |
| 20260503001522 | 17 | 312 | 6.4 | 16.1 | 0.00 | 0.00 | 0.00 | 68 | 1011.7 |
| 20260503001020 | 17 | 314 | 4.8 | 16.1 | 0.00 | 0.00 | 0.00 | 68 | 1011.8 |
| 20260503000520 | 17 | 311 | 3.2 | 19.3 | 0.00 | 0.00 | 0.00 | 68 | 1011.8 |
| 20260503000014 | 17 | 282 | 8.0 | 19.3 | 0.00 | 0.00 | 0.00 | 68 | 1011.8 |
| 20260502235513 | 17 | 281 | 6.4 | 16.1 | 0.00 | 0.00 | 0.00 | 67 | 1011.7 |
| 20260502235014 | 17 | 313 | 6.4 | 16.1 | 0.00 | 0.00 | 0.00 | 67 | 1011.9 |
| 20260502234512 | 17 | 314 | 3.2 | 17.7 | 0.00 | 0.00 | 0.00 | 67 | 1011.9 |
| 20260502234012 | 17 | 318 | 11.3 | 19.3 | 0.00 | 0.00 | 0.00 | 67 | 1011.9 |
| 20260502233512 | 17 | 317 | 6.4 | 17.7 | 0.00 | 0.00 | 0.00 | 67 | 1011.8 |
| 20260502233011 | 18 | 294 | 3.2 | 17.7 | 0.00 | 0.00 | 0.00 | 67 | 1011.9 |
| 20260502232510 | 18 | 313 | 3.2 | 17.7 | 0.00 | 0.00 | 0.00 | 67 | 1012.0 |
| 20260502232014 | 18 | 299 | 9.7 | 22.5 | 0.00 | 0.00 | 0.00 | 66 | 1012.1 |
| 20260502231515 | 18 | 291 | 11.3 | 22.5 | 0.00 | 0.00 | 0.00 | 67 | 1012.2 |
| 20260502231010 | 18 | 306 | 8.0 | 20.9 | 0.00 | 0.00 | 0.00 | 66 | 1012.2 |
| 20260502230508 | 18 | 287 | 8.0 | 17.7 | 0.00 | 0.00 | 0.00 | 67 | 1012.3 |
| 20260502230052 | 18 | 290 | 8.0 | 17.7 | 0.00 | 0.00 | 0.00 | 66 | 1012.4 |
| 20260502225552 | 18 | 296 | 6.4 | 14.5 | 0.00 | 0.00 | 0.00 | 66 | 1012.5 |